Lid_Strength_Index
11 13 14 13 13 14 15 16 16 15 13 14 15 14 16 15 17 19 19 19 19 18 17 16 17 17 17 17 16 16 15 15 14 14 14 15 15 14 13 13 12 12 11 9
12 14 12 12 13 14 14 16 16 15 14 15 15 16 15 15 16 16 18 20 19 18 18 17 17 18 17 17 17 16 15 15 15 14 14 15 15 14 14 13 13 12 12 11
13 12 12 13 14 15 16 16 16 16 16 16 17 19 16 17 16 18 18 18 19 18 18 18 18 19 18 17 17 16 15 15 15 15 14 15 15 15 15 14 14 13 12 12
14 13 13 14 15 14 17 15 15 16 18 21 19 22 19 19 18 18 18 19 19 19 18 18 18 18 18 17 17 16 15 15 15 15 16 16 17 17 16 15 14 14 13 13
13 15 15 15 14 13 15 15 16 17 19 21 20 22 20 20 20 19 18 19 20 19 18 18 18 17 17 16 17 16 16 16 16 16 16 16 17 16 15 15 15 15 14 13
13 13 14 14 13 14 14 16 17 18 20 24 21 21 23 22 19 18 18 19 19 19 19 18 17 17 17 17 17 17 17 16 16 16 16 17 17 17 17 16 16 16 16 14
15 15 15 13 15 14 15 18 21 23 24 22 21 23 18 18 18 18 18 19 20 19 19 18 18 18 17 17 17 17 17 17 16 17 17 17 17 17 17 17 17 17 17 16
17 17 15 14 15 15 16 17 20 24 24 19 22 23 20 19 20 18 17 19 20 20 19 18 18 18 18 17 17 17 18 17 17 17 17 17 17 17 17 17 17 17 17 17
17 17 16 15 15 15 17 19 17 21 31 28 22 21 19 21 21 21 21 20 21 20 19 18 18 18 18 18 18 18 18 17 17 18 18 18 17 17 17 17 17 17 17 16
14 17 17 17 16 17 17 16 20 20 25 28 22 22 20 22 22 22 21 21 21 20 19 18 18 18 18 18 18 18 18 18 18 18 19 18 18 18 17 17 18 18 17 17
15 15 18 18 18 17 19 19 19 19 19 23 24 19 19 20 19 21 21 20 20 20 19 18 18 18 18 18 19 19 20 19 19 19 19 19 19 18 18 18 18 18 17 17
15 17 19 19 18 18 17 17 17 20 22 21 21 21 17 18 18 19 20 20 20 19 19 18 19 19 19 19 20 20 20 20 20 20 20 20 19 19 19 19 18 18 18 18
15 18 21 18 19 20 20 19 17 18 18 20 23 20 20 20 20 20 21 20 20 19 19 19 19 19 20 21 21 21 21 21 20 21 21 21 20 20 20 19 19 19 18 19
12 17 17 17 16 17 20 21 19 18 20 20 20 19 16 18 21 22 21 20 20 19 19 19 20 20 21 21 22 22 22 21 21 22 22 22 21 20 20 19 19 19 19 20
14 16 17 14 13 17 16 16 19 20 19 20 18 17 15 14 16 20 19 20 19 20 19 20 20 21 22 22 22 22 22 22 22 22 23 22 21 20 20 20 20 20 20 20
16 17 17 17 16 17 19 17 17 17 17 18 17 18 14 13 19 20 20 19 19 19 19 19 19 21 21 22 22 22 23 23 22 23 23 22 22 21 21 21 21 20 21 21
18 17 19 19 19 19 21 19 18 17 17 17 20 17 14 16 20 20 20 19 19 19 19 20 21 22 22 23 22 24 24 23 23 23 23 23 22 23 23 23 22 21 22 22
18 17 18 20 21 24 17 20 18 18 17 17 17 16 16 19 19 19 18 19 19 19 20 21 23 24 23 23 24 24 23 23 24 24 24 23 24 24 24 24 23 23 22 22
14 15 19 21 21 19 17 16 20 21 18 17 17 16 15 19 20 21 19 20 20 21 21 23 24 24 24 25 24 25 24 24 24 25 24 24 25 26 26 26 24 22 22 22
16 16 17 22 23 24 17 22 20 18 21 16 17 17 20 20 23 22 21 21 21 22 22 23 24 24 25 25 25 25 25 25 26 25 25 25 26 28 27 25 23 22 23 22
21 20 20 19 19 21 17 20 19 22 17 19 18 19 20 20 19 19 20 21 21 23 23 24 25 25 26 25 25 26 26 27 26 26 26 27 27 28 24 23 23 23 23 22
21 21 23 19 22 23 18 21 20 17 19 19 19 19 19 19 20 20 20 22 23 24 24 24 25 26 26 25 27 27 28 26 26 27 28 30 29 24 22 24 24 23 24 24
18 18 20 19 20 17 17 18 16 17 18 18 18 18 18 19 20 20 21 22 23 24 24 25 27 27 26 26 27 29 27 27 28 31 32 30 26 23 22 24 24 25 25 25
18 15 18 18 16 16 17 15 16 16 17 17 17 17 17 18 19 20 21 23 24 24 25 26 27 27 27 27 27 28 28 28 32 33 31 27 25 24 23 23 23 25 25 26
16 16 16 17 15 16 14 16 15 16 16 17 17 17 17 18 19 20 22 24 24 25 26 27 27 28 28 28 28 29 29 30 32 31 28 27 25 24 24 23 24 24 23 23
16 15 17 16 13 13 13 14 15 16 16 16 17 18 18 17 19 20 23 24 25 26 27 28 28 28 28 28 28 29 31 32 34 31 29 27 25 25 24 25 25 22 22 21